Zurück zum Katalog

SATELIOT_2

AktivKommunikationSSO
NORAD 60534·PAYLOAD·🇪🇸 Spain

Gestartet Aug 16, 2024 von Vandenberg Space Force Base

Loading…

Nächste Überflüge (nächste 24 Stunden)

TLE

AktuellSource: Space-Track

Epoche: Sep 14, 2026, 10:09 UTC

1 60534U 24149BU  26257.42355341  .00001893  00000-0  17115-3 0  9996
2 60534  97.6760 330.7342 0001992 105.4912 254.6530 14.96627123113315

Verfolge SATELIOT_2 in Echtzeit mit AllMySat

Download on the App Store